Cloquet, MN

1:01 PM CDT on June 25, 2017 (GMT -0500)
Cloquet Carlton County

Weather History for KCOQ - July, 2013

Change the Weather History Date:

Monday, July 22, 2013

  Actual Average Record
Temperature  
Mean Temperature 68 °F -  
Max Temperature 82 °F 74 °F 89 °F (2001)
Min Temperature 55 °F 53 °F 48 °F (2000)
Cooling Degree Days 4    
Growing Degree Days 18 (Base 50)    
Moisture  
Dew Point 56 °F    
Average Humidity 71    
Maximum Humidity 94    
Minimum Humidity 39    
Precipitation  
Precipitation 0.00 in - - ()
Sea Level Pressure  
Sea Level Pressure 29.73 in    
Wind  
Wind Speed 8 mph (WSW)    
Max Wind Speed 21 mph    
Max Gust Speed 29 mph    
Visibility 10 miles    
Events Rain , Thunderstorm    
Averages and records for this station are not official NWS values.
T = Trace of Precipitation, MM = Missing Value Source: NWS Daily Summary

Daily Weather History Graph

Daily Weather History Graph

Search for Another Location

Airport or City:

Trip Planner

Search our weather history database for the weather conditions in past years. The results will help you decide how hot, cold, wet, or windy it might be!

Date:

Astronomy

Jul. 22, 2013 Rise Set
Actual Time 5:38 AM CDT 8:53 PM CDT
Civil Twilight 5:02 AM CDT 9:29 PM CDT
Nautical Twilight 4:14 AM CDT 10:17 PM CDT
Astronomical Twilight 3:14 AM CDT 11:16 PM CDT
Moon 8:33 PM CDT (7/22) 5:40 AM CDT (7/22)
Length of Visible Light 16h 27m
Length of Day
15h 14m
Full, 100% of the Moon is Illuminated
Jul 22
Full
Jul 22
Full
Jul 29
Last Quarter
Aug 6
New
Aug 14
First Quarter

Hourly Weather History & Observations

Time (CDT) Temp. Heat Index Dew Point Humidity Pressure Visibility Wind Dir Wind Speed Gust Speed Precip Events Conditions
12:16 AM 55.4 °F - 48.2 °F 77% 29.84 in 10.0 mi East 4.6 mph - N/A   Scattered Clouds
12:36 AM 55.4 °F - 48.2 °F 77% 29.82 in 10.0 mi East 6.9 mph - N/A   Overcast
12:56 AM 55.4 °F - 48.2 °F 77% 29.83 in 10.0 mi ESE 5.8 mph - N/A   Overcast
1:16 AM 55.4 °F - 48.2 °F 77% 29.83 in 10.0 mi ESE 4.6 mph - N/A   Overcast
1:36 AM 55.4 °F - 50.0 °F 82% 29.82 in 10.0 mi ESE 4.6 mph - N/A   Overcast
1:56 AM 55.4 °F - 51.8 °F 88% 29.80 in 10.0 mi ESE 4.6 mph - N/A   Overcast
2:15 AM 55.4 °F - 51.8 °F 88% 29.79 in 10.0 mi ESE 5.8 mph - N/A   Overcast
2:36 AM 55.4 °F - 51.8 °F 88% 29.78 in 10.0 mi ESE 4.6 mph - N/A   Overcast
2:56 AM 55.4 °F - 51.8 °F 88% 29.76 in 10.0 mi ESE 4.6 mph - N/A   Overcast
3:15 AM 55.4 °F - 51.8 °F 88% 29.74 in 10.0 mi ESE 6.9 mph - N/A   Overcast
3:36 AM 55.4 °F - 53.6 °F 94% 29.76 in 10.0 mi Calm Calm - N/A   Overcast
3:56 AM 55.4 °F - 53.6 °F 94% 29.75 in 10.0 mi SSE 3.5 mph - N/A   Overcast
4:15 AM 55.4 °F - 53.6 °F 94% 29.72 in 10.0 mi SE 5.8 mph - N/A Rain Light Rain
4:36 AM 57.2 °F - 55.4 °F 94% 29.72 in 10.0 mi South 4.6 mph - N/A   Overcast
4:56 AM 57.2 °F - 55.4 °F 94% 29.73 in 10.0 mi SSE 3.5 mph - N/A Rain Light Rain
5:15 AM 59.0 °F - 57.2 °F 94% 29.71 in 10.0 mi SSE 5.8 mph - N/A Rain Light Rain
5:36 AM 60.8 °F - 57.2 °F 88% 29.73 in 10.0 mi South 5.8 mph - N/A Thunderstorm Unknown
5:56 AM 60.8 °F - 59.0 °F 94% 29.72 in 7.0 mi South 6.9 mph - N/A   Overcast
6:15 AM 60.8 °F - 59.0 °F 94% 29.72 in 7.0 mi SSW 4.6 mph - N/A Rain Light Rain
6:36 AM 62.6 °F - 60.8 °F 94% 29.70 in 7.0 mi SSE 3.5 mph - N/A   Light Drizzle
6:56 AM 62.6 °F - 60.8 °F 94% 29.70 in 7.0 mi South 4.6 mph - N/A Rain Light Rain
7:15 AM 64.4 °F - 62.6 °F 94% 29.69 in 5.0 mi SSW 8.1 mph - N/A   Overcast
7:36 AM 66.2 °F - 64.4 °F 94% 29.68 in 10.0 mi SSW 9.2 mph - N/A   Overcast
7:56 AM 66.2 °F - 64.4 °F 94% 29.67 in 10.0 mi SSW 10.4 mph - N/A   Overcast
8:15 AM 66.2 °F - 64.4 °F 94% 29.66 in 10.0 mi SSW 11.5 mph - N/A   Overcast
8:36 AM 68.0 °F - 64.4 °F 88% 29.66 in 10.0 mi SSW 11.5 mph 17.3 mph N/A   Overcast
8:56 AM 69.8 °F - 64.4 °F 83% 29.67 in 10.0 mi SW 11.5 mph - N/A   Overcast
9:15 AM 69.8 °F - 64.4 °F 83% 29.66 in 10.0 mi SSW 9.2 mph 19.6 mph N/A   Overcast
9:36 AM 69.8 °F - 64.4 °F 83% 29.66 in 10.0 mi SSW 9.2 mph - N/A   Overcast
9:55 AM 69.8 °F - 64.4 °F 83% 29.66 in 10.0 mi SW 10.4 mph - N/A   Overcast
10:16 AM 71.6 °F - 66.2 °F 83% 29.66 in 10.0 mi SW 8.1 mph - N/A   Overcast
10:35 AM 71.6 °F - 66.2 °F 83% 29.66 in 10.0 mi SW 9.2 mph - N/A   Overcast
10:56 AM 71.6 °F - 66.2 °F 83% 29.66 in 10.0 mi SW 8.1 mph - N/A   Overcast
11:16 AM 75.2 °F - 66.2 °F 73% 29.65 in 10.0 mi SW 10.4 mph 17.3 mph N/A   Overcast
11:35 AM 77.0 °F - 66.2 °F 69% 29.65 in 10.0 mi West 10.4 mph - N/A   Mostly Cloudy
11:56 AM 80.6 °F 82.3 °F 64.4 °F 58% 29.65 in 10.0 mi WSW 11.5 mph - N/A   Mostly Cloudy
12:16 PM 80.6 °F 81.5 °F 60.8 °F 51% 29.65 in 10.0 mi WSW 11.5 mph - N/A   Scattered Clouds
12:35 PM 80.6 °F 81.1 °F 59.0 °F 48% 29.65 in 10.0 mi West 15.0 mph 19.6 mph N/A   Scattered Clouds
12:56 PM 80.6 °F 80.8 °F 57.2 °F 45% 29.66 in 10.0 mi WNW 17.3 mph 24.2 mph N/A   Clear
1:15 PM 82.4 °F 82.0 °F 57.2 °F 42% 29.66 in 10.0 mi West 17.3 mph 25.3 mph N/A   Scattered Clouds
1:36 PM 80.6 °F 80.5 °F 55.4 °F 42% 29.66 in 10.0 mi West 12.7 mph 24.2 mph N/A   Scattered Clouds
1:55 PM 80.6 °F 80.5 °F 55.4 °F 42% 29.67 in 10.0 mi WNW 17.3 mph 23.0 mph N/A   Clear
2:16 PM 80.6 °F 80.3 °F 53.6 °F 39% 29.67 in 10.0 mi WNW 15.0 mph 23.0 mph N/A   Scattered Clouds
2:36 PM 80.6 °F 80.5 °F 55.4 °F 42% 29.68 in 10.0 mi West 18.4 mph 28.8 mph N/A   Scattered Clouds
2:55 PM 78.8 °F - 53.6 °F 42% 29.68 in 10.0 mi NW 19.6 mph 26.5 mph N/A   Scattered Clouds
3:16 PM 78.8 °F - 55.4 °F 44% 29.69 in 10.0 mi WNW 17.3 mph 25.3 mph N/A   Clear
3:36 PM 77.0 °F - 55.4 °F 47% 29.70 in 10.0 mi NW 19.6 mph 27.6 mph N/A   Clear
3:55 PM 75.2 °F - 53.6 °F 47% 29.71 in 10.0 mi WNW 17.3 mph 28.8 mph N/A   Clear
4:16 PM 73.4 °F - 53.6 °F 50% 29.72 in 10.0 mi NW 18.4 mph - N/A   Mostly Cloudy
4:35 PM 73.4 °F - 53.6 °F 50% 29.73 in 10.0 mi NW 20.7 mph 27.6 mph N/A   Mostly Cloudy
4:56 PM 71.6 °F - 53.6 °F 53% 29.74 in 10.0 mi NW 15.0 mph 23.0 mph N/A   Overcast
5:15 PM 69.8 °F - 53.6 °F 56% 29.74 in 10.0 mi NW 13.8 mph 25.3 mph N/A   Overcast
5:36 PM 71.6 °F - 53.6 °F 53% 29.75 in 10.0 mi WNW 13.8 mph 25.3 mph N/A   Mostly Cloudy
5:55 PM 69.8 °F - 51.8 °F 53% 29.74 in 10.0 mi NW 11.5 mph 17.3 mph N/A   Mostly Cloudy
6:16 PM 69.8 °F - 51.8 °F 53% 29.75 in 10.0 mi WNW 9.2 mph 18.4 mph N/A   Overcast
6:36 PM 69.8 °F - 51.8 °F 53% 29.75 in 10.0 mi WNW 9.2 mph 16.1 mph N/A   Overcast
6:55 PM 69.8 °F - 51.8 °F 53% 29.75 in 10.0 mi WNW 11.5 mph 20.7 mph N/A   Overcast
7:16 PM 69.8 °F - 51.8 °F 53% 29.76 in 10.0 mi NW 13.8 mph 18.4 mph N/A   Mostly Cloudy
7:36 PM 69.8 °F - 51.8 °F 53% 29.77 in 10.0 mi WNW 9.2 mph 17.3 mph N/A   Mostly Cloudy
7:56 PM 68.0 °F - 51.8 °F 56% 29.77 in 10.0 mi WNW 11.5 mph 16.1 mph N/A   Scattered Clouds
8:16 PM 66.2 °F - 51.8 °F 60% 29.78 in 10.0 mi WNW 10.4 mph - N/A   Scattered Clouds
8:36 PM 66.2 °F - 51.8 °F 60% 29.79 in 10.0 mi West 6.9 mph - N/A   Mostly Cloudy
8:55 PM 66.2 °F - 51.8 °F 60% 29.80 in 10.0 mi WNW 9.2 mph 16.1 mph N/A   Overcast
9:16 PM 66.2 °F - 51.8 °F 60% 29.81 in 10.0 mi NW 9.2 mph - N/A   Overcast
9:36 PM 64.4 °F - 51.8 °F 64% 29.82 in 10.0 mi NW 5.8 mph - N/A   Overcast
9:55 PM 62.6 °F - 51.8 °F 68% 29.83 in 10.0 mi West 4.6 mph - N/A   Scattered Clouds
10:16 PM 60.8 °F - 51.8 °F 72% 29.83 in 10.0 mi West 4.6 mph - N/A   Clear
10:36 PM 60.8 °F - 51.8 °F 72% 29.83 in 10.0 mi WNW 5.8 mph - N/A   Clear
10:55 PM 59.0 °F - 51.8 °F 77% 29.83 in 10.0 mi West 5.8 mph - N/A   Clear
11:16 PM 59.0 °F - 51.8 °F 77% 29.84 in 10.0 mi West 5.8 mph - N/A   Clear
11:36 PM 57.2 °F - 51.8 °F 82% 29.84 in 10.0 mi West 4.6 mph - N/A   Clear
11:55 PM 57.2 °F - 51.8 °F 82% 29.84 in 10.0 mi West 4.6 mph - N/A   Clear